Weather History for KBKW - December, 2014

Change the Weather History Date:

Monday, December 22, 2014

  Actual Average Record
Temperature  
Mean Temperature 39 °F 33 °F  
Max Temperature 43 °F 41 °F 68 °F (2013)
Min Temperature 35 °F 25 °F -13 °F (1989)
Degree Days  
Heating Degree Days 26 32  
Month to date heating degree days 614 656  
Since 1 July heating degree days 1855 1796  
Cooling Degree Days 0 0  
Month to date cooling degree days 0 0  
Year to date cooling degree days 602 557  
Moisture  
Dew Point 32 °F    
Average Humidity 79    
Maximum Humidity 85    
Minimum Humidity 73    
Precipitation  
Precipitation T in 0.10 in 1.50 in (1981)
Month to date precipitation 1.88 2.15  
Year to date precipitation 36.10 40.34  
Snow  
Snow 0.00 in - - ()
Month to date snowfall 0.7  
Since 1 September snowfall 4.4  
Snow Depth 0.00 in    
Sea Level Pressure  
Sea Level Pressure 30.06 in    
Wind  
Wind Speed 11 mph (SE)    
Max Wind Speed 20 mph    
Max Gust Speed 30 mph    
Visibility 10 miles    
Events Rain    
T = Trace of Precipitation, MM = Missing Value Source: NWS Daily Summary

Daily Weather History Graph

Daily Weather History Graph

Search for Another Location

Airport or City:

Trip Planner

Search our weather history database for the weather conditions in past years. The results will help you decide how hot, cold, wet, or windy it might be!

Date:

Astronomy

Dec. 22, 2014 Rise Set
Actual Time 7:36 AM EST 5:09 PM EST
Civil Twilight 7:07 AM EST 5:39 PM EST
Nautical Twilight 6:34 AM EST 6:11 PM EST
Astronomical Twilight 6:02 AM EST 6:43 PM EST
Moon 7:49 AM EST (12/22) 6:15 PM EST (12/22)
Length of Visible Light 10h 31m
Length of Day
9h 32m
New Moon, 1% of the Moon is Illuminated
Dec 22
New Moon
Dec 28
First Quarter
Jan 4
Full
Jan 13
Last Quarter
Jan 20
New

Hourly Weather History & Observations

Time (EST) Temp. Windchill Dew Point Humidity Pressure Visibility Wind Dir Wind Speed Gust Speed Precip Events Conditions
12:51 AM 36.0 °F 27.5 °F 30.0 °F 79% 30.16 in 10.0 mi SE 12.7 mph 24.2 mph N/A   Clear
1:51 AM 35.1 °F 26.4 °F 28.9 °F 78% 30.15 in 10.0 mi SE 12.7 mph 20.7 mph N/A   Clear
2:51 AM 35.1 °F 26.4 °F 30.0 °F 82% 30.14 in 10.0 mi SE 12.7 mph - N/A   Partly Cloudy
3:33 AM 35.1 °F 25.5 °F 30.0 °F 82% 30.09 in 10.0 mi SE 15.0 mph 19.6 mph N/A   Mostly Cloudy
3:51 AM 35.1 °F 26.9 °F 30.0 °F 82% 30.12 in 10.0 mi SE 11.5 mph 19.6 mph N/A   Mostly Cloudy
3:59 AM 35.1 °F 26.9 °F 30.0 °F 82% 30.08 in 10.0 mi SE 11.5 mph - N/A   Mostly Cloudy
4:51 AM 36.0 °F 28.0 °F 30.0 °F 79% 30.12 in 10.0 mi SE 11.5 mph - N/A   Overcast
5:51 AM 36.0 °F 28.5 °F 30.0 °F 79% 30.12 in 10.0 mi SE 10.4 mph - N/A   Overcast
6:51 AM 35.1 °F 27.9 °F 30.0 °F 82% 30.13 in 10.0 mi SE 9.2 mph - N/A   Overcast
7:51 AM 36.0 °F 28.5 °F 30.0 °F 79% 30.13 in 10.0 mi SE 10.4 mph - N/A   Overcast
8:51 AM 36.0 °F 30.3 °F 30.0 °F 79% 30.13 in 10.0 mi ESE 6.9 mph - N/A   Overcast
9:51 AM 36.0 °F 29.6 °F 30.0 °F 79% 30.15 in 10.0 mi ESE 8.1 mph - N/A   Overcast
10:51 AM 37.0 °F 29.8 °F 30.0 °F 76% 30.12 in 10.0 mi SE 10.4 mph - 0.00 in   Overcast
11:04 AM 37.0 °F 32.4 °F 30.0 °F 76% 30.06 in 10.0 mi ESE 5.8 mph - N/A   Overcast
11:51 AM 37.9 °F 30.5 °F 30.9 °F 76% 30.08 in 10.0 mi SE 11.5 mph - N/A   Overcast
12:22 PM 37.9 °F 30.9 °F 30.9 °F 76% 30.01 in 10.0 mi ESE 10.4 mph - N/A   Overcast
12:51 PM 39.9 °F 34.5 °F 32.0 °F 73% 30.05 in 10.0 mi ESE 8.1 mph - N/A   Overcast
1:51 PM 41.0 °F 36.4 °F 34.0 °F 76% 30.02 in 10.0 mi ESE 6.9 mph - N/A   Overcast
2:51 PM 41.0 °F 36.4 °F 34.0 °F 76% 29.99 in 10.0 mi SE 6.9 mph 21.9 mph N/A   Overcast
3:51 PM 39.0 °F 31.4 °F 33.1 °F 79% 30.02 in 10.0 mi ESE 12.7 mph - N/A   Overcast
4:26 PM 37.9 °F 30.9 °F 33.1 °F 83% 29.95 in 10.0 mi SE 10.4 mph 19.6 mph N/A   Overcast
4:51 PM 37.9 °F 30.5 °F 33.1 °F 83% 30.01 in 10.0 mi SE 11.5 mph - N/A   Overcast
5:51 PM 37.0 °F 28.5 °F 33.1 °F 86% 29.99 in 10.0 mi SE 13.8 mph 20.7 mph N/A   Overcast
6:51 PM 37.0 °F 28.5 °F 33.1 °F 86% 30.00 in 10.0 mi ESE 13.8 mph 23.0 mph N/A   Overcast
7:51 PM 37.0 °F 27.0 °F 33.1 °F 86% 29.98 in 10.0 mi SE 18.4 mph 29.9 mph N/A   Overcast
8:51 PM 37.0 °F 28.9 °F 33.1 °F 86% 29.99 in 10.0 mi SE 12.7 mph 23.0 mph N/A   Overcast
9:51 PM 37.0 °F 27.7 °F 33.1 °F 86% 29.99 in 10.0 mi SE 16.1 mph 24.2 mph N/A   Overcast
10:51 PM 37.9 °F 30.5 °F 35.1 °F 89% 29.97 in 10.0 mi SE 11.5 mph 26.5 mph 0.00 in Rain Light Rain
11:51 PM 37.9 °F 30.5 °F 35.1 °F 89% 29.96 in 10.0 mi SE 11.5 mph 18.4 mph 0.00 in   Mostly Cloudy